This demonstration page uses our WeatherBlox Daily Observations layout. Learn more.

Left ArrowRight Arrow

53.62937, 11.41316

Hourly Observations for November 15, 2020

Temp ( °F °C ) Dew Point ( °F °C ) Humidity (%) Winds ( mph kmh ) Pressure ( in mb ) Visibility ( mi km ) Precip ( " mm )
8:20 am 08:20 Mostly Sunny 50 10 46 8 88 88 SE 8 13 29.83 1010 7 11 N/A
8:50 am 08:50 Mostly Sunny 50 10 46 8 88 88 SE 7 11 29.83 1010 7 11 N/A
9:20 am 09:20 Mostly Sunny 52 11 46 8 82 82 SE 7 11 29.83 1010 7 11 N/A
9:50 am 09:50 Mostly Sunny 52 11 48 9 88 88 SE 8 13 29.83 1010 7 11 N/A
10:20 am 10:20 Mostly Sunny 54 12 48 9 82 82 SE 9 15 29.80 1009 7 11 N/A
10:50 am 10:50 Mostly Sunny 55 13 48 9 77 77 SE 10 17 29.80 1009 7 11 N/A
11:20 am 11:20 Mostly Sunny 55 13 48 9 77 77 SE 10 17 29.80 1009 7 11 N/A
11:50 am 11:50 Mostly Sunny 57 14 50 10 77 77 SE 9 15 29.77 1008 7 11 N/A
12:20 pm 12:20 Mostly Sunny 59 15 48 9 68 68 SE 9 15 29.77 1008 7 11 N/A
12:50 pm 12:50 Mostly Sunny 61 16 50 10 68 68 SE 9 15 29.77 1008 7 11 N/A
1:20 pm 13:20 Mostly Sunny 59 15 50 10 72 72 SE 9 15 29.77 1008 7 11 N/A
1:50 pm 13:50 Mostly Sunny 61 16 50 10 68 68 SE 9 15 29.77 1008 7 11 N/A
2:20 pm 14:20 Mostly Sunny 59 15 50 10 72 72 SE 10 17 29.74 1007 7 11 N/A
2:50 pm 14:50 Mostly Sunny 59 15 50 10 72 72 SE 9 15 29.71 1006 7 11 N/A
3:20 pm 15:20 Mostly Sunny 57 14 50 10 77 77 ESE 9 15 29.71 1006 7 11 N/A
3:50 pm 15:50 Mostly Sunny 57 14 48 9 72 72 SE 8 13 29.71 1006 7 11 N/A
4:20 pm 16:20 Mostly Clear 55 13 48 9 77 77 SE 9 15 29.68 1005 7 11 N/A
4:50 pm 16:50 Mostly Clear 55 13 48 9 77 77 SE 9 15 29.68 1005 7 11 N/A
5:20 pm 17:20 Mostly Clear 55 13 48 9 77 77 SSE 8 13 29.68 1005 7 11 N/A
5:50 pm 17:50 Mostly Clear 55 13 48 9 77 77 SSE 8 13 29.65 1004 7 11 N/A
6:20 pm 18:20 Mostly Clear 55 13 48 9 77 77 SSE 9 15 29.65 1004 7 11 N/A
6:50 pm 18:50 Mostly Clear 55 13 48 9 77 77 SSE 9 15 29.65 1004 7 11 N/A
7:20 pm 19:20 Mostly Clear 55 13 48 9 77 77 SSE 9 15 29.62 1003 7 11 N/A
7:50 pm 19:50 Mostly Clear 55 13 48 9 77 77 SSE 9 15 29.62 1003 7 11 N/A
8:20 pm 20:20 Mostly Clear 55 13 46 8 72 72 SSE 8 13 29.62 1003 7 11 N/A
8:50 pm 20:50 Mostly Clear 55 13 46 8 72 72 SSE 9 15 29.59 1002 7 11 N/A
9:20 pm 21:20 Mostly Clear 55 13 46 8 72 72 SSE 9 15 29.59 1002 7 11 N/A
9:50 pm 21:50 Mostly Clear 55 13 46 8 72 72 SSE 9 15 29.59 1002 7 11 N/A

Powered by AerisWeather